#datint,netname,site,siteID,timestamp,IntT,BattV,AirT2,AirT,AirT_Avg,AirT_Max,AirT_Min,RH_Avg,RH_Max,RH_Min,EA_Avg,Td_Avg,Td_Max,Td_Min,WindS_Smp,WindS_Avg,WindD_Avg,WindD_SD,WindS_Max,ETo,ETr,SoilT4,SoilT8,SoilVWC8,SolarW_Avg,wetstate_Avg,wetT_Avg,Precip_accum,Precip_WPG,Precip_TB
15min,AgWx,beryljct,423,26JUN2017:01:00:00,61.5,12.9,58.1,58.2,59.4,60.4,58.1,48,59,41,0.907,39.7,44.3,35.8,0,1.0,108,22,2.2,-0.00021,-0.00029,76.4,69.1,.,0,0,55.5,1.72,0.00,0.00
15min,AgWx,beryljct,423,26JUN2017:01:15:00,60.6,12.9,58.2,58.3,57.7,58.4,57.0,55,65,50,0.907,41.6,45.9,39.2,2.806,1.4,326,37,4.4,-0.00017,-0.00022,76.1,69.1,.,0,0,54.7,1.72,0.00,0.00
15min,AgWx,beryljct,423,26JUN2017:01:30:00,59.7,12.89,55.6,55.3,56.7,58.3,55.2,59,63,55,0.878,42.7,44.3,41.2,3.201,2.1,23,36,3.4,-0.00009,-0.00009,75.7,69.1,.,0,0,54.5,1.72,0.00,0.00
15min,AgWx,beryljct,423,26JUN2017:01:45:00,58.7,12.88,56.3,56.1,55.8,56.8,55.0,60,65,53,0.949,42.1,43.7,39.7,1.315,3.8,283,6.4,4.6,0.00005,0.00010,75.2,69.1,.,0,0,55.4,1.73,0.00,0.00
15min,AgWx,beryljct,423,26JUN2017:02:00:00,58.1,12.88,58.1,57.8,57.3,58.9,55.9,49,61,39,0.804,38.2,42.9,32.8,5.042,2.3,299,6.5,5.1,-0.00004,-0.00001,74.9,69.1,.,0,0,56.6,1.73,0.00,0.00
15min,AgWx,beryljct,423,26JUN2017:02:15:00,57.7,12.87,56.3,56.5,58.0,58.9,56.5,47,58,37,0.860,37.8,42.4,32.0,0.066,1.0,343,28,4.9,-0.00020,-0.00028,74.5,69.1,.,0,0,56.1,1.73,0.00,0.00
15min,AgWx,beryljct,423,26JUN2017:02:30:00,57.2,12.86,57.1,57.1,56.6,57.2,55.9,48,58,39,0.743,37.2,42.2,31.7,4.187,2.0,227,24,5.0,-0.00008,-0.00008,74.1,69.1,.,0,0,53.8,1.73,0.00,0.00
15min,AgWx,beryljct,423,26JUN2017:02:45:00,56.7,12.85,56.0,56.0,55.7,57.0,55.1,52,59,42,0.689,38.3,41.1,34.0,0,1.2,229,48,3.8,-0.00018,-0.00024,73.8,69.1,.,0,0,53.5,1.73,0.00,0.00
15min,AgWx,beryljct,423,26JUN2017:03:00:00,56.2,12.83,53.2,53.1,55.7,57.6,53.1,58,70,40,0.910,40.7,44.4,33.0,0,0.6,68,41,2.4,-0.00027,-0.00039,73.4,69.1,.,0,0,53.2,1.73,0.00,0.00
15min,AgWx,beryljct,423,26JUN2017:03:15:00,55.7,12.84,56.6,56.6,55.2,57.3,53.0,48,67,31,0.726,35.1,42.6,26.6,2.565,1.9,82,24,3.3,-0.00009,-0.00009,73.1,69.1,.,0,0,52.5,1.74,0.00,0.00
15min,AgWx,beryljct,423,26JUN2017:03:30:00,55.4,12.84,53.4,53.2,55.0,56.7,53.2,55,65,41,0.838,38.8,42.2,33.1,2.85,1.7,150,56,3.9,-0.00012,-0.00014,72.8,69.1,.,0,0,52.0,1.74,0.00,0.00
15min,AgWx,beryljct,423,26JUN2017:03:45:00,54.8,12.82,53.0,53.0,53.5,54.0,53.0,56,60,52,0.810,38.1,39.9,36.3,0.395,1.6,167,5.1,2.9,-0.00013,-0.00016,72.3,69.1,.,0,0,49.9,1.74,0.00,0.00
15min,AgWx,beryljct,423,26JUN2017:04:00:00,54.1,12.82,54.9,55.0,53.2,55.1,52.5,54,61,43,0.647,36.8,40.0,32.3,0.636,0.7,201,13,1.8,-0.00025,-0.00036,72.0,69.1,.,0,0,49.0,1.74,0.00,0.00
15min,AgWx,beryljct,423,26JUN2017:04:15:00,53.6,12.82,51.8,51.3,54.8,55.9,51.3,50,67,43,0.863,36.2,40.9,32.5,2.938,1.6,202,3.7,4.8,-0.00012,-0.00014,71.8,69.1,.,0,0,51.1,1.74,0.00,0.00
15min,AgWx,beryljct,423,26JUN2017:04:30:00,53.2,12.8,50.6,50.4,51.9,53.1,50.4,57,66,47,0.697,37.1,40.5,31.4,4.691,2.7,180,12,4.8,-0.00003,-0.00001,71.4,69.1,.,0,0,50.1,1.74,0.00,0.00
15min,AgWx,beryljct,423,26JUN2017:04:45:00,52.9,12.8,53.8,53.5,52.4,54.1,50.2,49,56,39,0.663,33.7,36.5,29.7,2.499,4.5,170,17,8.1,0.00015,0.00023,71.2,69.1,.,0,0,51.0,1.74,0.00,0.00
15min,AgWx,beryljct,423,26JUN2017:05:00:00,52.8,12.79,51.9,51.4,52.6,53.6,51.4,56,69,48,0.847,37.2,42.2,33.3,0.877,2.4,105,41,4.0,-0.00005,-0.00003,70.7,69.1,.,0,0,53.0,1.74,0.00,0.00
15min,AgWx,beryljct,423,26JUN2017:05:15:00,52.8,12.79,52.2,52.4,53.5,56.4,51.3,51,65,38,0.793,35.9,40.2,30.0,3.924,3.1,314,66,6.4,0.00003,0.00007,70.5,69.1,.,0,0,53.2,1.74,0.00,0.00
15min,AgWx,beryljct,423,26JUN2017:05:30:00,52.5,12.78,51.5,51.2,51.5,52.4,50.6,57,66,48,0.738,36.8,39.9,33.2,3.595,4.1,318,11,5.6,0.00041,0.00072,70.2,69.1,.,0,0,51.5,1.74,0.00,0.00
15min,AgWx,beryljct,423,26JUN2017:05:45:00,52.1,12.78,50.7,50.5,50.3,51.3,48.5,55,70,45,0.758,34.6,40.0,30.0,3.508,2.8,35,84,6.9,0.00031,0.00054,70.0,69.1,.,0,0,49.1,1.74,0.00,0.00
15min,AgWx,beryljct,423,26JUN2017:06:00:00,51.6,12.76,55.4,55.2,51.6,55.2,49.7,52,66,38,0.571,34.2,39.2,29.8,4.516,4.2,173,11,5.6,0.00047,0.00083,69.7,69.1,.,0,0,49.4,1.74,0.00,0.00
15min,AgWx,beryljct,423,26JUN2017:06:15:00,51.4,12.76,52.1,51.9,53.0,55.1,51.6,50,58,39,0.745,34.8,37.8,30.6,0.504,3.0,159,3.8,5.7,0.00040,0.00068,69.5,69.1,.,2,0,51.2,1.74,0.00,0.00
15min,AgWx,beryljct,423,26JUN2017:06:30:00,51.2,12.77,50.7,50.4,51.2,51.9,50.2,59,66,50,0.695,37.2,39.8,33.1,2.872,1.3,186,13,2.9,0.00020,0.00031,69.2,69.1,.,11,0,50.5,1.74,0.00,0.00
15min,AgWx,beryljct,423,26JUN2017:06:45:00,51.8,12.79,51.1,51.0,52.0,53.4,50.5,49,62,42,0.686,33.5,38.9,30.5,3.902,2.0,178,9.0,5.5,0.00047,0.00068,68.9,69.1,.,37,0,54.9,1.75,0.00,0.00
15min,AgWx,beryljct,423,26JUN2017:07:00:00,52.9,12.81,51.4,51.4,50.8,51.4,50.4,60,64,53,0.801,37.5,39.2,34.5,1.008,2.2,172,6.3,4.2,0.00056,0.00075,68.7,69.1,.,62,0,57.3,1.75,0.00,0.00
15min,AgWx,beryljct,423,26JUN2017:07:15:00,54.9,12.82,53.6,53.6,52.4,53.6,51.3,63,69,56,0.799,40.0,42.5,37.9,1.841,1.5,173,6.8,2.7,0.00068,0.00082,68.4,69.1,.,105,0,62.0,1.75,0.00,0.00
15min,AgWx,beryljct,423,26JUN2017:07:30:00,57.5,12.87,57.1,57.3,54.9,57.3,53.5,62,67,56,0.937,42.1,44.2,38.3,0.482,1.2,153,9.9,2.5,0.00088,0.00102,68.1,69.1,.,146,0,66.8,1.76,0.01,0.00
15min,AgWx,beryljct,423,26JUN2017:07:45:00,60.5,12.89,58.9,58.5,58.4,59.1,57.4,64,69,54,0.905,46.1,48.7,42.0,1.732,1.4,104,35,2.2,0.00116,0.00134,68.0,69.1,.,191,0,71.7,1.76,0.00,0.00
15min,AgWx,beryljct,423,26JUN2017:08:00:00,63.9,12.95,63.4,64.1,60.9,64.2,58.5,52,65,39,0.797,43.2,48.0,38.5,1.228,0.5,0.8,25,1.9,0.00140,0.00154,67.8,69.1,.,237,0,75.2,1.77,0.00,0.00
15min,AgWx,beryljct,423,26JUN2017:08:15:00,67.6,13,65.4,65.5,64.6,65.7,63.9,42,49,36,1.012,41.2,45.2,36.5,1.798,1.4,1.9,15,2.4,0.00186,0.00215,67.8,69.1,.,287,0,79.0,1.77,0.00,0.00
15min,AgWx,beryljct,423,26JUN2017:08:30:00,71.1,13.12,68.0,68.9,67.3,68.9,65.6,38,48,29,0.706,40.4,45.3,35.6,1.25,2.0,343,9.3,2.8,0.00230,0.00272,67.9,69.1,.,336,0,81.6,1.77,0.00,0.00
15min,AgWx,beryljct,423,26JUN2017:08:45:00,74.6,13.33,70.5,70.6,69.9,70.8,68.7,27,35,22,0.888,34.0,41.5,29.2,0.658,1.6,6.8,16,3.0,0.00266,0.00311,68.2,69.1,.,386,0,86.2,1.77,0.00,0.00
15min,AgWx,beryljct,423,26JUN2017:09:00:00,77.6,13.6,71.5,71.0,71.4,72.0,70.5,34,45,29,1.012,41.2,48.7,37.2,1.184,1.1,63,20,2.0,0.00291,0.00328,68.5,69.1,.,434,0,91.6,1.77,0.00,0.00
15min,AgWx,beryljct,423,26JUN2017:09:15:00,80.0,13.88,72.5,71.3,71.3,72.3,70.5,40,51,31,0.944,45.5,52.9,38.7,1.622,1.3,93,19,2.2,0.00325,0.00365,68.8,69.1,.,482,0,95.8,1.77,0.00,0.00
15min,AgWx,beryljct,423,26JUN2017:09:30:00,82.2,14.08,73.4,73.4,72.5,73.7,71.4,36,46,28,1.119,43.8,50.4,36.6,1.754,1.4,106,6.3,2.3,0.00362,0.00407,69.3,69.1,.,529,0,101.0,1.76,0.00,0.00
15min,AgWx,beryljct,423,26JUN2017:09:45:00,84.5,14.02,75.5,76.0,74.6,76.1,72.7,32,42,27,0.848,42.5,48.7,38.8,1.951,1.2,105,4.2,2.1,0.00397,0.00443,69.7,69.1,.,576,0,105.2,1.76,0.00,0.00
15min,AgWx,beryljct,423,26JUN2017:10:00:00,86.9,13.98,77.6,77.4,76.8,77.6,75.8,28,34,24,0.934,41.1,46.0,36.9,1.25,1.3,114,7.1,2.4,0.00437,0.00488,70.4,69.1,.,622,0,108.4,1.76,0.00,0.00
15min,AgWx,beryljct,423,26JUN2017:10:15:00,88.4,13.97,77.5,77.7,77.4,78.0,76.3,29,36,25,1.166,42.9,48.6,38.6,3.814,3.0,114,6.9,4.3,0.00494,0.00577,71.2,69.1,.,665,0,108.1,1.75,0.00,0.00
15min,AgWx,beryljct,423,26JUN2017:10:30:00,88.5,13.97,76.6,76.2,75.9,77.6,74.4,38,53,30,1.508,48.2,57.7,42.5,2.981,4.3,111,6.6,5.9,0.00524,0.00619,71.9,69.1,.,707,0,103.8,1.75,0.00,0.00
15min,AgWx,beryljct,423,26JUN2017:10:45:00,89.0,13.95,80.3,80.1,78.4,80.8,76.0,39,50,21,1.491,50.8,59.8,36.6,3.179,3.4,108,15,6.5,0.00552,0.00637,72.7,69.1,.,745,0,104.7,1.75,0.00,0.00
15min,AgWx,beryljct,423,26JUN2017:11:00:00,90.1,13.93,84.5,84.4,81.7,84.4,79.9,35,51,19,0.772,50.5,62.4,37.9,11.16,4.7,109,46,11.2,0.00610,0.00722,73.4,69.1,.,783,0,105.3,1.74,0.00,0.00
15min,AgWx,beryljct,423,26JUN2017:11:15:00,91.3,13.88,85.8,85.2,85.0,86.1,83.2,20,25,13,0.666,39.0,45.2,29.1,11.55,9.8,179,18,15.2,0.00745,0.00970,74.4,69.1,.,819,0,104.5,1.74,0.00,0.00
15min,AgWx,beryljct,423,26JUN2017:11:30:00,92.4,13.91,87.3,87.0,85.6,87.2,83.9,18,28,12,0.527,37.3,47.5,28.4,13.81,11.2,171,12,18.9,0.00794,0.01048,75.1,69.1,.,852,0,104.5,1.73,0.00,0.00
15min,AgWx,beryljct,423,26JUN2017:11:45:00,93.4,13.45,86.0,86.1,86.9,88.0,85.7,16,20,12,0.757,34.4,40.9,26.6,14.21,13.2,191,13,20.0,0.00861,0.01161,76.0,69.1,.,882,0,104.8,1.73,0.00,0.00
15min,AgWx,beryljct,423,26JUN2017:12:00:00,94.2,13.46,87.9,87.9,87.1,88.1,85.8,16,21,12,0.651,36.1,43.5,27.7,13.33,11.8,189,15,19.4,0.00853,0.01127,76.8,69.1,.,906,0,105.8,1.72,0.00,0.00
15min,AgWx,beryljct,423,26JUN2017:12:15:00,94.3,13.46,88.0,88.0,87.0,88.2,85.5,16,22,13,0.848,35.4,42.8,29.6,9.73,14.6,179,18,21.9,0.00907,0.01229,77.5,69.1,.,930,0,104.2,1.71,0.00,0.00
15min,AgWx,beryljct,423,26JUN2017:12:30:00,94.2,13.42,89.2,89.1,88.0,89.3,86.2,15,19,12,0.573,34.1,39.2,29.3,26.57,16.5,179,14,26.6,0.00956,0.01310,78.2,69.1,.,951,0,104.6,1.71,0.00,0.00
15min,AgWx,beryljct,423,26JUN2017:12:45:00,93.9,13.42,88.3,88.4,88.5,89.2,87.4,14,17,11,0.596,32.5,37.4,28.2,22.82,19.2,180,11,26.3,0.01015,0.01419,78.9,69.1,.,972,0,104.1,1.71,0.00,0.00
15min,AgWx,beryljct,423,26JUN2017:13:00:00,93.5,13.42,89.4,89.2,88.4,89.7,87.3,14,18,11,0.562,32.3,38.7,27.8,25.28,20.0,180,12,26.1,0.01030,0.01444,79.4,69.1,.,987,0,103.8,1.70,0.00,0.00
15min,AgWx,beryljct,423,26JUN2017:13:15:00,93.3,13.42,88.5,88.3,88.9,89.8,88.2,13,17,11,0.660,32.3,39.6,27.3,17.25,18.8,191,13,26.3,0.01030,0.01433,80.2,69.1,.,997,0,105.0,1.70,0.00,0.00
15min,AgWx,beryljct,423,26JUN2017:13:30:00,93.3,13.43,90.0,89.7,88.6,89.7,87.6,14,18,12,0.596,34.0,40.4,29.4,18.39,18.6,197,14,27.9,0.01019,0.01412,80.7,69.1,.,1005,0,104.7,1.70,0.00,0.00
15min,AgWx,beryljct,423,26JUN2017:13:45:00,93.3,13.42,89.3,89.2,88.7,90.1,87.5,15,18,11,0.685,34.3,39.9,26.4,16.38,16.5,189,23,22.9,0.00996,0.01360,81.1,69.1,.,1010,0,105.2,1.69,0.00,0.00
15min,AgWx,beryljct,423,26JUN2017:14:00:00,93.3,13.42,88.3,88.0,88.9,90.3,87.5,14,19,11,0.723,33.5,40.3,27.8,13.42,18.3,170,10,28.0,0.01024,0.01417,81.8,69.1,.,1011,0,104.9,1.69,0.00,0.00
15min,AgWx,beryljct,423,26JUN2017:14:15:00,93.0,13.41,89.5,89.6,88.8,90.4,87.7,14,17,11,0.512,33.0,38.4,27.7,23.81,19.3,168,12,27.1,0.01019,0.01423,82.2,69.1,.,985,0,103.7,1.69,0.00,0.00
15min,AgWx,beryljct,423,26JUN2017:14:30:00,93.1,13.39,89.6,89.8,89.8,91.3,87.9,12,16,9.6,0.622,31.3,36.7,25.2,21.88,20.2,178,14,30.4,0.01058,0.01489,82.8,69.1,.,997,0,104.4,1.69,0.00,0.00
15min,AgWx,beryljct,423,26JUN2017:14:45:00,93.3,13.42,88.5,88.4,89.7,90.6,88.2,12,15,10,0.502,30.4,36.6,26.2,23.59,20.7,176,15,28.4,0.01052,0.01490,83.2,69.1,.,974,0,104.2,1.69,0.00,0.00
15min,AgWx,beryljct,423,26JUN2017:15:00:00,93.5,13.39,88.7,88.8,89.4,90.6,88.5,12,16,9.8,0.681,30.7,38.0,26.0,15.28,18.7,170,12,26.7,0.01012,0.01419,83.8,69.1,.,964,0,103.8,1.68,0.00,0.00
15min,AgWx,beryljct,423,26JUN2017:15:15:00,93.8,13.36,89.0,88.9,88.6,89.5,87.8,14,18,11,0.519,32.3,40.0,27.5,19.09,15.9,185,31,23.4,0.00952,0.01307,84.0,69.1,.,952,0,103.6,1.69,0.00,0.00
15min,AgWx,beryljct,423,26JUN2017:15:30:00,94.4,13.36,89.2,88.9,89.3,90.2,88.4,13,19,8.4,0.530,31.2,41.8,22.1,19.66,15.5,200,16,24.9,0.00940,0.01293,84.3,69.1,.,928,0,105.0,1.69,0.00,0.00
15min,AgWx,beryljct,423,26JUN2017:15:45:00,94.9,13.36,90.1,90.3,89.6,90.8,88.5,10,14,7.7,0.478,25.8,33.9,20.5,19.75,19.1,189,12,27.4,0.00981,0.01401,84.6,69.1,.,886,0,104.1,1.69,0.00,0.00
15min,AgWx,beryljct,423,26JUN2017:16:00:00,95.1,13.36,90.0,89.9,88.7,89.9,87.8,12,16,8.4,0.439,28.4,36.6,21.0,19.49,15.6,204,15,26.6,0.00910,0.01267,84.9,69.1,.,881,0,103.6,1.69,0.00,0.00
15min,AgWx,beryljct,423,26JUN2017:16:15:00,95.3,13.36,88.1,87.9,88.9,90.0,87.7,12,15,8.6,0.594,29.1,35.4,21.9,10.98,16.4,206,18,26.0,0.00903,0.01271,85.4,69.1,.,848,0,102.7,1.69,0.00,0.00
15min,AgWx,beryljct,423,26JUN2017:16:30:00,94.8,13.35,87.6,87.8,88.2,89.0,87.5,12,16,9.6,0.515,29.0,35.9,23.8,20.87,18.3,221,13,27.6,0.00900,0.01288,85.4,69.1,.,815,0,99.8,1.69,0.00,0.00
15min,AgWx,beryljct,423,26JUN2017:16:45:00,94.4,13.35,87.9,88.2,88.6,90.0,87.6,10,12,7.9,0.469,25.3,30.1,19.6,20.58,18.9,207,18,30.8,0.00900,0.01307,85.8,69.1,.,781,0,99.9,1.69,0.00,0.00
15min,AgWx,beryljct,423,26JUN2017:17:00:00,94.5,13.36,88.5,88.5,88.9,89.9,87.8,11,13,7.8,0.438,27.0,32.7,19.4,19.47,14.4,202,11,21.1,0.00802,0.01136,85.8,69.1,.,742,0,101.9,1.69,0.00,0.00
15min,AgWx,beryljct,423,26JUN2017:17:15:00,94.1,13.36,88.2,88.5,88.0,88.6,87.4,9.9,13,7.5,0.452,24.3,31.0,18.3,18.66,18.8,217,11,26.6,0.00846,0.01247,86.1,69.1,.,706,0,96.1,1.69,0.00,0.00
15min,AgWx,beryljct,423,26JUN2017:17:30:00,93.4,13.4,87.6,87.6,87.6,88.2,86.9,9.8,13,8.0,0.409,23.9,30.0,19.2,19.09,18.3,218,12,24.1,0.00809,0.01199,86.2,69.1,.,664,0,97.2,1.69,0.00,0.00
15min,AgWx,beryljct,423,26JUN2017:17:45:00,93.1,13.38,87.3,87.3,87.6,88.3,86.7,9.4,13,7.4,0.398,22.7,30.9,17.2,15.39,16.7,213,11,22.8,0.00758,0.01125,86.0,69.1,.,620,0,97.6,1.69,0.00,0.00
15min,AgWx,beryljct,423,26JUN2017:18:00:00,92.5,13.39,87.7,87.9,87.3,87.9,86.5,9.1,13,6.2,0.416,21.7,30.3,13.1,12.63,18.1,214,13,27.9,0.00751,0.01137,86.1,69.1,.,573,0,96.1,1.70,0.00,0.00
15min,AgWx,beryljct,423,26JUN2017:18:15:00,92.1,13.4,86.7,86.9,87.0,87.8,86.1,8.8,11,6.9,0.391,20.8,26.5,15.3,18.46,17.3,210,9.4,26.6,0.00703,0.01072,86.1,69.1,.,526,0,95.6,1.70,0.00,0.00
15min,AgWx,beryljct,423,26JUN2017:18:30:00,91.6,13.39,86.9,86.6,86.7,87.2,86.0,8.3,11,6.4,0.309,19.1,25.2,13.8,24.93,16.9,214,14,24.9,0.00665,0.01027,85.8,69.1,.,479,0,94.6,1.70,0.00,0.00
15min,AgWx,beryljct,423,26JUN2017:18:45:00,91.0,13.42,86.8,86.8,86.1,86.9,85.4,8.6,11,6.8,0.383,19.4,25.7,14.4,14.25,16.1,212,14,23.4,0.00616,0.00963,85.7,69.1,.,425,0,93.4,1.70,0.00,0.00
15min,AgWx,beryljct,423,26JUN2017:19:00:00,90.5,13.34,85.7,85.3,85.7,86.9,85.1,9.2,12,7.0,0.402,20.8,27.0,15.3,10.96,14.6,218,14,19.9,0.00547,0.00863,85.6,69.1,.,372,0,92.5,1.70,0.00,0.00
15min,AgWx,beryljct,423,26JUN2017:19:15:00,89.9,13.25,85.9,85.6,85.7,87.4,84.7,8.9,12,5.8,0.371,19.8,27.6,11.1,14.29,15.4,208,17,26.5,0.00529,0.00857,85.3,69.1,.,319,0,91.8,1.70,0.00,0.00
15min,AgWx,beryljct,423,26JUN2017:19:30:00,89.4,13.21,85.0,84.9,85.6,86.4,84.8,8.8,11,7.1,0.399,19.7,24.2,15.4,15.45,14.8,202,13,20.6,0.00483,0.00800,85.0,69.1,.,265,0,91.0,1.70,0.00,0.00
15min,AgWx,beryljct,423,26JUN2017:19:45:00,88.7,13.17,85.6,85.5,85.2,86.1,84.1,8.7,11,6.5,0.330,19.1,24.6,13.1,14.07,15.2,201,16,24.3,0.00458,0.00778,84.7,69.1,.,216,0,89.4,1.70,0.00,0.00
15min,AgWx,beryljct,423,26JUN2017:20:00:00,88.0,13.14,85.5,85.5,85.6,86.0,85.2,7.7,9.0,6.6,0.370,16.6,20.3,13.3,13.11,15.6,190,10,24.5,0.00442,0.00771,84.4,69.1,.,170,0,88.7,1.70,0.00,0.00
15min,AgWx,beryljct,423,26JUN2017:20:15:00,87.3,13.12,84.3,84.2,84.8,85.4,83.9,8.0,9.7,7.0,0.360,17.1,21.0,14.3,9.84,13.8,189,7.7,18.8,0.00234,0.00299,84.1,69.1,.,125,0,86.8,1.70,0.00,0.00
15min,AgWx,beryljct,423,26JUN2017:20:30:00,86.1,13.09,82.3,82.2,83.0,84.5,81.6,9.3,11,7.6,0.360,19.1,22.0,15.4,9.25,10.0,189,7.0,16.5,0.00177,0.00236,83.6,69.1,.,84,0,83.9,1.70,0.00,0.00
15min,AgWx,beryljct,423,26JUN2017:20:45:00,84.7,13.05,81.5,81.3,81.8,82.3,81.2,9.6,11,8.7,0.341,18.9,21.4,16.8,10.39,9.7,188,7.6,13.7,0.00160,0.00215,83.3,69.1,.,47,0,80.6,1.70,0.00,0.00
15min,AgWx,beryljct,423,26JUN2017:21:00:00,82.9,13.03,78.9,78.6,80.2,81.3,78.6,10,11,9.0,0.347,18.8,20.4,16.9,10.43,9.0,186,6.2,11.0,0.00138,0.00189,82.7,69.1,.,14,0,76.9,1.70,0.00,0.00
15min,AgWx,beryljct,423,26JUN2017:21:15:00,80.7,13.02,76.1,76.0,77.8,79.6,76.0,11,13,9.6,0.385,19.2,20.9,16.8,6.577,7.7,186,5.4,13.6,0.00113,0.00157,82.3,69.1,.,2,0,73.5,1.70,0.00,0.00
15min,AgWx,beryljct,423,26JUN2017:21:30:00,78.6,13.01,77.8,77.8,76.3,77.8,75.5,12,13,11,0.379,19.7,21.0,18.2,7.958,7.8,189,5.3,10.2,0.00108,0.00150,81.9,69.1,.,0,0,72.1,1.70,0.00,0.00
15min,AgWx,beryljct,423,26JUN2017:21:45:00,77.1,13,76.0,76.0,76.3,77.7,75.6,12,13,12,0.385,20.9,22.3,19.8,7.103,7.3,195,6.0,9.3,0.00102,0.00142,81.3,69.1,.,0,0,72.1,1.70,0.00,0.00
15min,AgWx,beryljct,423,26JUN2017:22:00:00,75.9,12.98,76.3,76.3,76.4,77.3,75.5,12,13,11,0.371,19.9,22.2,17.9,7.892,7.5,193,6.7,9.1,0.00104,0.00145,80.7,69.1,.,0,0,72.0,1.70,0.00,0.00
15min,AgWx,beryljct,423,26JUN2017:22:15:00,75.1,12.97,77.2,76.9,77.1,78.1,76.2,11,12,10,0.367,19.1,21.0,16.7,7.103,8.2,193,7.6,11.1,0.00115,0.00159,80.4,69.1,.,0,0,72.7,1.71,0.00,0.00
15min,AgWx,beryljct,423,26JUN2017:22:30:00,74.0,12.97,71.7,71.6,73.0,76.9,71.5,14,17,12,0.365,21.4,27.6,18.3,6.05,5.8,178,7.8,7.1,0.00073,0.00106,79.9,69.1,.,0,0,69.1,1.71,0.00,0.00
15min,AgWx,beryljct,423,26JUN2017:22:45:00,72.3,12.97,65.5,66.1,69.9,72.2,66.1,17,26,12,0.571,22.7,31.1,17.1,6.226,6.2,168,11,7.9,0.00073,0.00103,79.3,69.1,.,0,0,66.5,1.70,0.00,0.00
15min,AgWx,beryljct,423,26JUN2017:23:00:00,70.1,12.96,67.8,67.6,65.0,67.6,63.3,22,28,17,0.401,25.5,30.8,20.6,5.612,5.7,170,9.3,6.7,0.00055,0.00079,79.0,69.1,.,0,0,62.5,1.70,0.00,0.00
15min,AgWx,beryljct,423,26JUN2017:23:15:00,68.5,12.95,70.9,70.5,68.5,70.5,67.3,16,21,14,0.350,20.2,26.4,17.6,7.629,5.5,176,4.8,7.6,0.00062,0.00090,78.6,69.1,.,0,0,64.6,1.70,0.00,0.00
15min,AgWx,beryljct,423,26JUN2017:23:30:00,67.6,12.94,66.8,66.6,68.5,70.8,66.6,18,21,14,0.453,22.9,27.3,18.3,4.604,5.8,173,7.9,8.5,0.00064,0.00092,77.9,69.1,.,0,0,65.2,1.71,0.01,0.00
15min,AgWx,beryljct,423,26JUN2017:23:45:00,67.0,12.93,66.8,66.5,69.4,71.8,66.5,17,25,14,0.496,22.8,31.2,18.5,5.393,5.7,195,15,7.8,0.00065,0.00094,77.6,69.1,.,0,0,65.8,1.71,0.00,0.00
15min,AgWx,beryljct,423,27JUN2017:00:00:00,66.1,12.93,66.5,66.2,66.3,67.8,65.1,21,26,16,0.460,24.6,30.5,18.7,6.116,6.3,169,6.9,8.0,0.00065,0.00091,77.0,69.1,.,0,0,64.8,1.71,0.00,0.00
15min,AgWx,beryljct,423,27JUN2017:00:15:00,65.0,12.92,66.3,66.3,65.1,66.7,62.7,20,26,15,0.354,22.2,28.8,16.7,7.322,6.0,182,6.5,7.8,0.00060,0.00085,76.6,69.1,.,0,0,63.1,1.71,0.00,0.00
15min,AgWx,beryljct,423,27JUN2017:00:30:00,64.4,12.91,68.5,68.1,65.8,68.1,61.8,18,27,13,0.302,20.2,30.4,15.0,8.57,8.2,172,12,9.8,0.00086,0.00114,76.1,69.1,.,0,0,63.2,1.72,0.00,0.00
15min,AgWx,beryljct,423,27JUN2017:00:45:00,64.6,12.9,71.8,71.7,69.1,71.7,67.7,13,15,11,0.303,16.0,19.2,14.1,8.09,7.7,191,6.5,10.1,0.00092,0.00125,75.8,69.1,.,0,0,65.0,1.72,0.01,0.00
15min,AgWx,blo,425,26JUN2017:01:00:00,58.7,12.49,59.6,60.5,61.4,62.2,60.1,41,43,39,0.763,37.3,38.1,36.7,3.727,4.1,226,7.2,5.6,0.00020,0.00031,68.7,67.1,14,0,.,.,26.14,0.00,0.00
15min,AgWx,blo,425,26JUN2017:01:15:00,58.2,12.48,63.6,64.9,62.7,65.1,60.6,38,42,35,0.735,36.9,37.6,36.4,3.047,3.1,240,10,4.2,0.00010,0.00018,68.5,67.0,14,0,.,.,26.14,0.00,0.00
15min,AgWx,blo,425,26JUN2017:01:30:00,57.8,12.48,58.5,59.4,60.1,64.7,59.2,43,45,36,0.771,37.8,38.0,37.0,3.661,4.2,219,9.2,5.1,0.00018,0.00029,68.4,66.9,14,0,.,.,26.14,0.00,0.00
15min,AgWx,blo,425,26JUN2017:01:45:00,57.3,12.44,61.0,62.8,60.8,62.8,59.4,42,45,39,0.765,37.7,38.0,37.5,3.42,3.7,226,9.3,4.8,0.00015,0.00025,68.4,66.9,14,0,.,.,26.14,0.00,0.00
15min,AgWx,blo,425,26JUN2017:02:00:00,57.1,12.46,63.1,64.2,63.0,64.7,61.9,39,41,37,0.781,37.9,38.3,37.6,3.069,3.1,246,16,4.1,0.00010,0.00019,68.3,66.8,14,0,.,.,26.14,0.00,0.00
15min,AgWx,blo,425,26JUN2017:02:15:00,56.9,12.43,58.3,59.1,60.9,63.7,59.0,43,47,38,0.788,38.4,39.0,37.8,4.209,3.7,240,24,5.1,0.00014,0.00024,68.2,66.7,14,0,.,.,26.14,0.00,0.00
15min,AgWx,blo,425,26JUN2017:02:30:00,56.5,12.42,57.9,59.1,59.7,60.7,58.5,45,48,43,0.802,38.5,39.3,37.8,4.143,3.8,221,7.6,4.8,0.00013,0.00022,68.0,66.6,14,0,.,.,26.14,0.00,0.00
15min,AgWx,blo,425,26JUN2017:02:45:00,56.1,12.44,58.9,60.3,59.8,60.3,59.2,45,47,45,0.795,38.7,39.0,38.3,3.047,3.7,218,9.8,5.4,0.00012,0.00021,68.0,66.5,14,0,.,.,26.14,0.00,0.00
15min,AgWx,blo,425,26JUN2017:03:00:00,55.7,12.43,57.1,58.2,58.6,60.4,57.1,48,51,44,0.824,39.0,39.5,38.4,4.406,3.7,220,6.6,5.0,0.00010,0.00018,67.9,66.5,14,0,.,.,26.14,0.00,0.00
15min,AgWx,blo,425,26JUN2017:03:15:00,55.3,12.42,57.0,57.9,58.2,58.9,57.5,50,52,49,0.815,39.7,39.9,39.2,5.152,4.6,222,6.6,6.0,0.00016,0.00026,67.8,66.4,14,0,.,.,26.14,0.00,0.00
15min,AgWx,blo,425,26JUN2017:03:30:00,55.0,12.39,56.1,57.6,57.2,58.2,56.4,51,53,49,0.816,39.3,39.5,39.1,3.135,4.2,223,7.7,5.6,0.00013,0.00021,67.6,66.3,14,0,.,.,26.14,0.00,0.00
15min,AgWx,blo,425,26JUN2017:03:45:00,54.5,12.4,57.4,58.9,57.9,58.9,57.5,50,50,48,0.814,39.2,39.3,39.0,3.266,3.3,227,8.9,4.7,0.00005,0.00011,67.6,66.3,14,0,.,.,26.14,0.00,0.00
15min,AgWx,blo,425,26JUN2017:04:00:00,54.2,12.4,55.6,56.4,57.5,58.9,56.4,50,52,48,0.799,39.1,39.7,38.7,2.959,3.6,216,8.2,5.3,0.00007,0.00014,67.5,66.1,14,0,.,.,26.14,0.00,0.00
15min,AgWx,blo,425,26JUN2017:04:15:00,53.8,12.39,57.5,58.9,57.2,58.9,56.4,50,52,47,0.799,38.9,39.1,38.7,3.332,2.9,230,12,3.9,0.00001,0.00005,67.4,66.0,14,0,.,.,26.14,0.00,0.00
15min,AgWx,blo,425,26JUN2017:04:30:00,53.6,12.39,54.3,55.1,57.5,59.9,55.0,51,56,46,0.827,39.5,39.9,38.7,4.889,4.1,239,21,5.7,0.00011,0.00019,67.3,66.0,14,0,.,.,26.14,0.00,0.00
15min,AgWx,blo,425,26JUN2017:04:45:00,53.3,12.38,55.4,56.2,56.6,57.6,54.9,52,56,49,0.800,39.2,39.9,38.6,3.223,4.1,222,8.6,5.2,0.00011,0.00018,67.2,65.8,14,0,.,.,26.14,0.00,0.00
15min,AgWx,blo,425,26JUN2017:05:00:00,53.0,12.38,53.6,54.3,55.5,56.3,54.1,54,57,52,0.812,39.1,39.3,38.7,4.231,4.6,218,8.8,6.5,0.00012,0.00020,67.0,65.8,14,0,.,.,26.14,0.00,0.00
15min,AgWx,blo,425,26JUN2017:05:15:00,52.7,12.38,54.1,55.1,54.7,55.1,54.3,56,56,54,0.804,39.1,39.5,38.9,4.099,5.1,224,8.3,6.4,0.00014,0.00022,66.9,65.7,14,0,.,.,26.14,0.00,0.00
15min,AgWx,blo,425,26JUN2017:05:30:00,52.4,12.35,53.2,53.6,55.1,55.8,53.6,55,58,53,0.807,39.1,39.4,38.8,6.489,5.1,219,13,7.2,0.00015,0.00023,66.9,65.6,14,0,.,.,26.14,0.00,0.00
15min,AgWx,blo,425,26JUN2017:05:45:00,52.1,12.35,53.2,53.9,53.2,53.9,52.8,59,60,58,0.820,39.3,39.5,39.0,4.998,5.9,233,9.2,7.8,0.00016,0.00023,66.7,65.5,14,1,.,.,26.14,0.00,0.00
15min,AgWx,blo,425,26JUN2017:06:00:00,51.9,12.37,54.7,55.3,54.4,55.3,53.8,57,58,54,0.811,39.4,39.5,39.1,5.152,5.3,235,9.0,6.7,0.00015,0.00023,66.7,65.4,14,7,.,.,26.14,0.00,0.00
15min,AgWx,blo,425,26JUN2017:06:15:00,52.1,12.36,56.6,57.0,56.3,57.0,55.3,53,54,52,0.823,39.3,39.5,39.1,4.012,4.6,238,7.2,5.6,0.00013,0.00050,66.5,65.3,14,38,.,.,26.14,0.00,0.00
15min,AgWx,blo,425,26JUN2017:06:30:00,53.3,12.37,59.3,58.3,57.4,58.3,56.7,52,52,50,0.835,39.7,40.4,39.2,3.814,3.7,227,10,4.9,0.00026,0.00059,66.4,65.2,14,74,.,.,26.14,0.00,0.00
15min,AgWx,blo,425,26JUN2017:06:45:00,55.4,12.38,62.5,60.9,59.6,60.9,58.3,48,50,44,0.863,39.9,40.7,38.8,2.368,2.9,221,16,4.3,0.00036,0.00067,66.3,65.2,14,100,.,.,26.14,0.00,0.00
15min,AgWx,blo,425,26JUN2017:07:00:00,58.0,12.36,65.2,61.4,61.1,61.5,60.7,47,50,46,0.892,40.8,42.7,39.7,0.767,1.3,215,19,3.7,0.00025,0.00040,66.2,65.1,14,107,.,.,26.14,0.00,0.00
15min,AgWx,blo,425,26JUN2017:07:15:00,60.8,12.38,64.3,63.0,62.1,63.5,61.2,46,50,42,0.886,41.2,42.7,39.7,1.973,1.4,163,82,2.8,0.00075,0.00095,66.1,65.0,14,190,.,.,26.14,0.00,0.00
15min,AgWx,blo,425,26JUN2017:07:30:00,63.4,12.39,65.0,63.6,63.1,63.6,62.6,47,50,44,0.933,42.4,44.3,40.6,0.658,1.8,97,24,2.9,0.00111,0.00138,66.0,64.9,14,234,.,.,26.14,0.00,0.00
15min,AgWx,blo,425,26JUN2017:07:45:00,66.1,12.39,68.8,63.7,63.9,64.4,63.5,45,49,42,0.880,42.3,44.4,40.2,1.008,0.8,182,55,2.0,0.00131,0.00148,65.8,64.9,14,280,.,.,26.14,0.00,0.00
15min,AgWx,blo,425,26JUN2017:08:00:00,69.1,12.39,67.7,66.4,65.0,66.4,63.6,45,48,43,1.008,43.4,45.8,41.0,2.236,0.8,115,37,3.8,0.00166,0.00187,65.6,64.7,14,327,.,.,26.14,0.00,0.00
15min,AgWx,blo,425,26JUN2017:08:15:00,71.3,12.4,65.2,65.3,66.0,66.5,65.3,49,54,45,1.129,46.3,48.4,44.4,3.091,2.9,81,26,4.9,0.00223,0.00267,65.6,64.7,14,375,.,.,26.14,0.00,0.00
15min,AgWx,blo,425,26JUN2017:08:30:00,72.8,12.4,66.1,66.9,65.8,66.9,65.1,48,52,45,1.004,45.7,48.2,44.0,3.617,3.2,83,18,5.3,0.00258,0.00308,65.4,64.6,14,423,.,.,26.14,0.00,0.00
15min,AgWx,blo,425,26JUN2017:08:45:00,74.2,12.4,66.9,67.1,67.0,67.7,66.4,45,51,37,1.089,45.0,48.2,39.2,3.025,3.0,94,26,5.4,0.00293,0.00346,65.4,64.5,14,471,.,.,26.14,0.00,0.00